Location: ???
(37.4688°N, 71.4951°E)
Time: 22:16:08
(UTC+00:00)

Daily predictions for brighter satellites

Satellite Brightness Start Highest point End
(mag) Time Altitude Azimuth Time Altitude Azimuth Time Altitude Azimuth
STARLINK-1182 3.8 14:45:53 10° NW 14:50:01 64° NE 14:54:06 10° ESE
STARLINK-1214 2.9 14:47:07 10° SW 14:50:10 57° SE 14:53:13 10° NE
MONITOR-E 4.1 14:49:29 10° SSE 14:51:56 44° ENE 14:54:24 10° N
DMSP B5D2-2 4.5 14:47:08 10° NNE 14:52:11 43° E 14:57:10 10° S
Cosmos 2251 Rocket 3.9 14:49:24 10° N 14:54:28 48° ENE 14:59:30 10° SE
STARLINK-1211 4.5 14:50:57 10° S 14:54:31 29° SE 14:58:06 10° ENE
USA 186 0.9 14:52:30 10° SSE 14:54:49 85° ENE 14:57:16 10° N
STARLINK-1163 3.7 14:50:50 10° NW 14:54:58 71° NE 14:59:05 10° SE
Abrixas rocket 3.1 14:52:19 10° WSW 14:55:10 47° NNW 14:58:02 10° NE
OAO 3 Copernicus 4.5 14:52:21 10° W 14:57:20 61° S 15:02:19 10° ESE
STARLINK-1245 4.3 14:55:48 10° SSW 14:59:29 32° SE 15:03:11 10° ENE
Cosmos 1943 4.2 14:54:17 10° NW 14:59:43 48° WSW 15:05:05 10° S
STARLINK-1172 3.7 14:55:49 10° NW 14:59:58 78° NE 15:04:06 10° SE
Ariane Rocket 3.2 14:56:16 10° S 15:01:19 78° WSW 15:06:25 10° NNW
MetOp-A 4.5 14:56:34 10° SE 15:01:41 49° ENE 15:06:50 10° N
DELTA 2 R/B (1) 4.4 14:57:32 10° W 15:02:43 41° SSW 15:07:55 10° SE
STARLINK-1233 4.2 15:00:39 10° SSW 15:04:25 35° SE 15:08:13 10° ENE
STARLINK-1145 3.6 15:00:47 10° NW 15:04:56 86° NE 15:08:58 11° SE
BREEZE M DEB (TANK) 2.2 15:02:06 10° NW 15:05:43 66° NE 15:07:43 12° ESE
STARLINK-1204 4.0 15:05:32 10° SSW 15:09:23 39° SE 15:13:16 10° ENE
ARGOS 3.4 15:04:05 10° S 15:09:25 73° WSW 15:14:48 10° NNW
STARLINK-1161 3.6 15:05:44 10° NW 15:09:54 86° SW 15:13:43 12° SE
Cosmos 1743 4.1 15:07:45 10° NNE 15:10:48 22° ENE 15:13:22 12° SE
CZ-2C R/B 2.8 15:05:58 10° NNE 15:11:32 63° E 15:17:05 10° S
NOSS 2-3 (E) 4.1 15:10:12 10° S 15:13:57 34° ESE 15:18:02 10° NE
STARLINK-1238 3.9 15:10:23 10° SSW 15:14:18 44° SE 15:18:15 10° ENE
SEDSat Delta rocket 4.3 15:07:56 10° WSW 15:14:28 50° S 15:20:42 10° ESE
Cosmos 2056 Rocket 4.5 15:10:22 10° SSE 15:14:29 25° E 15:18:35 10° NE
STARLINK-1160 3.7 15:10:43 10° NW 15:14:50 77° SW 15:18:29 13° SE
Resurs 1-3 3.9 15:11:35 10° SSE 15:15:48 49° ENE 15:20:03 10° N
BREEZE M DEB (TANK) 4.4 15:03:45 10° SW 15:16:38 48° SSE 15:20:29 10° ENE
Cosmos 1891 Rocket 4.5 15:13:06 10° N 15:19:16 78° E 15:25:32 10° S
STARLINK-1201 3.8 15:15:18 10° SSW 15:19:18 50° SE 15:23:18 10° ENE
STARLINK-1170 3.8 15:15:43 10° NW 15:19:50 69° SW 15:23:18 14° SE
Cosmos 2278 Rocket 3.5 15:19:02 11° SE 15:22:43 20° E 15:26:46 10° NE
Cosmos 2242 Rocket 3.5 15:18:55 10° S 15:23:16 65° E 15:27:38 10° NNE
CZ-2C R/B 3.7 15:19:21 10° NNE 15:23:49 87° W 15:28:19 10° SSW
STARLINK-1206 3.6 15:20:13 10° SSW 15:24:15 55° SE 15:28:18 10° NE
STARLINK-1150 3.9 15:20:43 10° NW 15:24:48 62° SW 15:28:05 15° SSE
STARLINK-1205 3.6 15:25:08 10° SW 15:29:12 62° SE 15:33:18 10° NE
STARLINK-1151 4.0 15:25:44 10° NW 15:29:47 55° SW 15:32:53 16° SSE
Okean 1 3.6 15:25:56 10° SSE 15:29:48 49° E 15:33:44 10° NNE
SL-08 RB Rocket 4.4 15:26:26 10° S 15:30:57 55° W 15:35:29 10° NNW
Cosmos 44 Rocket 3.7 15:28:00 10° NNW 15:32:47 52° ENE 15:36:17 18° SE
Cosmos 389 Rocket 2.4 15:29:33 10° S 15:32:56 63° E 15:36:22 10° NNE
Cosmos 1844 Rocket 3.3 15:27:53 10° SW 15:33:29 61° WNW 15:39:06 10° NNE
NOSS 2-3 (D) 3.6 15:29:46 10° SSW 15:33:46 50° ESE 15:38:12 10° NE
STARLINK-1218 3.5 15:30:04 10° SW 15:34:10 69° SE 15:38:17 10° NE
STARLINK-1133 4.2 15:30:44 10° WNW 15:34:44 49° SW 15:37:39 17° SSE
STARLINK-1254 3.5 15:35:02 10° SW 15:39:09 77° SE 15:43:17 10° NE
STARLINK-1139 4.4 15:35:46 10° WNW 15:39:43 44° SW 15:42:27 18° SSE
ASTEX 1 3.6 15:34:59 10° S 15:39:50 70° W 15:44:44 10° N
Lacrosse 5 4.5 15:40:10 10° N 15:41:18 11° NNE 15:42:27 10° NNE
USA 229 DEB 4.0 15:37:38 10° SW 15:44:05 69° NW 15:50:51 10° NNE
STARLINK-1231 3.5 15:40:01 10° SW 15:44:08 85° SE 15:48:17 10° NE
USA 229 3.9 15:37:46 10° SW 15:44:11 70° NW 15:50:57 10° NNE
Cosmos 2034 Rocket 3.9 15:38:31 10° N 15:44:44 84° E 15:50:33 12° S
STARLINK-1165 4.4 15:43:03 10° NW 15:47:01 42° NE 15:49:25 21° E
Cosmos 1536 4.4 15:43:53 10° NNW 15:47:35 34° W 15:51:16 10° SSW
STARLINK-1232 3.6 15:44:58 10° SW 15:49:06 86° NW 15:53:16 10° NE
STARLINK-1169 4.3 15:48:00 10° NW 15:52:00 46° NE 15:54:11 24° E
NOSS 3-1 (C) 4.1 15:47:16 10° SW 15:52:28 51° NW 15:58:27 10° NNE
NOSS 3-1 (A) 3.2 15:47:58 10° SSW 15:53:17 84° WNW 15:59:23 10° NNE
STARLINK-1208 3.7 15:49:57 10° SW 15:54:05 78° NW 15:58:14 10° NE
Cosmos 407 Rocket 3.9 15:49:12 10° N 15:54:22 48° ENE 15:57:10 25° SE
SPOT 3 Rocket 4.1 15:49:49 10° S 15:54:51 57° W 15:59:56 10° NNW
Cosmos 1356 3.8 15:52:21 10° N 15:55:41 45° E 15:56:37 35° ESE
Meteor 2-4 Rocket 4.1 15:52:56 22° SE 15:55:47 39° E 16:00:44 10° NNE
IGS 5A 4.4 15:54:49 25° ESE 15:56:14 32° ENE 15:59:55 10° N
COSMOS 2406 4.2 15:51:44 10° N 15:56:55 33° ENE 15:59:47 21° ESE
STARLINK-1178 4.1 15:52:56 10° NW 15:57:00 51° NE 15:58:58 27° ESE
Cosmos 1607 4.2 15:50:58 10° NW 15:57:20 70° WSW 16:01:57 20° SSE
USA 245 3.9 15:57:59 29° ESE 15:59:03 35° ENE 16:02:09 10° N
STARLINK-1271 3.9 15:54:57 10° SW 15:59:04 71° NW 16:03:12 10° NE
Okean 3 4.3 15:58:30 29° ESE 15:59:32 32° E 16:03:23 10° NNE
STARLINK-1120 4.0 15:57:54 10° NW 16:01:59 56° NE 16:03:46 30° ESE
SPOT 1/Viking Rocket 4.3 16:00:38 25° ESE 16:02:52 37° ENE 16:07:35 10° N
Cosmos 1515 3.5 16:01:23 25° S 16:03:31 77° E 16:07:20 10° N
Cosmos 2221 Rocket 4.3 16:02:23 30° ESE 16:03:32 35° E 16:07:38 10° NNE
STARLINK-1154 4.0 15:59:58 10° WSW 16:04:03 64° NW 16:08:10 10° NE
Cosmos 371 Rocket 4.5 16:04:17 23° E 16:04:17 23° E 16:08:03 10° NE
NOSS 2-3 (C) 3.8 16:00:22 10° SW 16:04:31 73° WNW 16:09:14 10° NNE
Okean 1-7 3.2 16:01:27 10° SSW 16:05:43 69° W 16:09:59 10° N
STARLINK-1131 3.8 16:02:51 10° NW 16:06:58 62° NE 16:08:32 35° ESE
STARLINK-1197 4.2 16:04:58 10° WSW 16:09:02 58° NW 16:13:08 10° NE
Resurs 01 Rocket 2.1 16:06:35 19° S 16:09:37 60° W 16:14:02 10° NNW
STARLINK-1190 3.7 16:07:46 10° NW 16:11:55 68° NE 16:13:17 39° ESE
Cosmos 1624 Rocket 4.1 16:08:24 10° SSW 16:13:41 83° WNW 16:19:03 10° NNE
STARLINK-1198 4.4 16:09:58 10° WSW 16:13:59 53° NW 16:18:03 10° NE
Cosmos 1190 Rocket 4.1 16:10:58 10° N 16:16:08 62° ENE 16:18:11 36° SE
SPOT 5 4.1 16:14:47 26° E 16:16:19 30° ENE 16:20:50 10° N
MetOp-B 4.1 16:13:45 28° SSE 16:16:43 88° ENE 16:22:06 10° NNW
STARLINK-1129 3.6 16:12:47 10° NW 16:16:57 76° NE 16:18:07 45° ESE
Aureole 1 Rocket 3.4 16:14:36 10° N 16:18:51 63° ENE 16:20:47 37° SE
Sich 1 Rocket 3.7 16:15:37 10° N 16:20:11 64° E 16:21:33 42° SE
Hubble Space Telescope 2.4 16:17:17 10° SW 16:19:30 21° SSW 16:19:30 21° SSW
STARLINK-1134 3.5 16:17:47 10° NW 16:21:56 83° NE 16:22:55 51° SE
Meteor 1-4 Rocket 2.7 16:24:39 38° SSW 16:25:46 63° W 16:29:12 10° N
STARLINK-1135 3.5 16:22:43 10° NW 16:26:53 88° SSW 16:27:39 58° SE
Cosmos 1634 Rocket 4.0 16:20:43 10° N 16:27:04 80° E 16:30:15 32° SSE
Cosmos 1140 Rocket 3.4 16:23:43 10° NNW 16:28:55 74° ENE 16:30:37 43° SE
Cosmos 1782 Rocket 3.9 16:25:13 10° NNW 16:29:39 63° W 16:31:32 33° SSW
STARLINK-1157 3.9 16:26:50 10° WNW 16:29:52 39° SW 16:29:52 39° SW
ATLAS 3B CENTAUR R/B 4.0 16:23:29 10° SW 16:31:16 23° S 16:31:16 23° S
STARLINK-1141 3.5 16:27:43 10° NW 16:31:52 80° SW 16:32:27 63° SSE
Cosmos 614 Rocket 4.3 16:27:16 10° NNW 16:32:15 57° WSW 16:34:29 31° SSW
CREW DRAGON DEMO-1 DEB 3.8 16:30:09 10° NW 16:32:55 42° NNE 16:32:55 42° NNE
Cosmos 909 Rocket 4.2 16:26:46 10° NNW 16:34:26 89° ENE 16:37:18 37° SSE
Landsat 7 3.7 16:34:36 45° S 16:36:05 87° WSW 16:40:52 10° NNW
STARLINK-1140 3.5 16:32:40 10° NW 16:36:49 72° SW 16:37:13 65° S
Cosmos 2082 Rocket 3.5 16:32:16 10° N 16:37:04 27° ENE 16:38:46 23° E
Okean 2 Rocket 3.1 16:33:17 10° N 16:37:40 58° E 16:38:06 55° ESE
ERS-1 Rocket 3.0 16:40:29 49° SE 16:41:36 63° ENE 16:46:34 10° N
STARLINK-1156 3.6 16:37:41 10° NW 16:41:48 65° SW 16:42:00 63° SSW
Cosmos 1954 Rocket 4.1 16:38:12 10° NNW 16:43:26 63° ENE 16:44:34 50° ESE
Cosmos 1833 Rocket 3.0 16:40:59 10° NNW 16:46:28 51° ENE 16:47:45 43° ESE
Spot 2 Rocket 3.9 16:44:45 35° SSW 16:46:39 57° W 16:51:37 10° NNW
STARLINK-1148 3.8 16:42:41 10° NW 16:46:45 58° SW 16:46:47 58° SW
SeaSat 1 3.3 16:45:33 10° NE 16:49:01 33° E 16:49:01 33° E
Cosmos 1544 4.2 16:47:13 10° NNW 16:50:35 35° W 16:51:05 33° WSW
Cosmos 2151 Rocket 3.8 16:46:11 10° N 16:50:39 56° E 16:50:43 56° E
STARLINK-1158 4.0 16:47:41 10° WNW 16:51:34 51° SW 16:51:34 51° SW
ERBS 3.8 16:54:40 30° NNE 16:54:40 30° NNE 16:56:34 10° NNE
Okean 1 Rocket 4.5 16:51:59 10° NNE 16:55:16 26° ENE 16:55:16 26° ENE
Cosmos 676 Rocket 3.9 16:50:46 10° NNW 16:56:02 86° ENE 16:56:57 62° SSE
STARLINK-1162 4.3 16:52:40 10° WNW 16:56:19 45° WSW 16:56:19 45° WSW
Cosmos 332 Rocket 3.9 16:56:51 58° E 16:56:51 58° E 17:01:30 10° NNE
Cosmos 1975 4.4 16:56:14 10° NNW 16:59:43 28° W 17:00:49 25° WSW
SEDSat Delta rocket 4.2 16:54:26 10° W 17:00:44 44° SSW 17:00:50 44° S
Cosmos 1943 Rocket 4.3 17:03:09 12° ENE 17:03:09 12° ENE 17:03:58 10° ENE
STARLINK-1076 4.5 17:00:00 10° NW 17:03:56 41° NE 17:04:04 41° NE
Cosmos 2278 Rocket 3.0 17:00:53 10° SW 17:06:21 50° WNW 17:11:52 10° NNE
STARLINK-1092 4.4 17:04:56 10° NW 17:08:50 44° NNE 17:08:50 44° NNE
STARLINK-1080 4.3 17:09:55 10° NW 17:13:38 48° NNE 17:13:38 48° NNE
CARTOSAT-1 3.8 17:14:01 60° W 17:14:01 60° W 17:18:14 10° NNW
Meteor 1-12 Rocket 4.5 17:10:41 10° NNW 17:16:15 63° W 17:17:29 50° SSW
STARLINK-1090 4.3 17:14:52 10° NW 17:18:26 50° N 17:18:26 50° N
Terra 1.7 17:20:45 86° WNW 17:20:45 86° WNW 17:25:28 10° NNW
SL-4 R/B 4.0 17:18:56 10° N 17:20:02 18° N 17:20:02 18° N
ISS -0.9 17:20:24 10° NNW 17:22:16 14° NNE 17:22:36 14° NNE
STARLINK-1089 4.4 17:19:50 10° NW 17:23:12 50° N 17:23:12 50° N
Cosmos 1437 Rocket 3.8 17:26:16 42° NW 17:26:16 42° NW 17:29:09 10° N
Lacrosse 5 3.0 17:21:04 10° NNW 17:25:41 35° NE 17:26:29 33° ENE
Thor Agena Rocket 4.2 17:22:05 10° NNE 17:26:19 43° ENE 17:26:19 43° ENE
Cosmos 1452 Rocket 4.2 17:25:25 36° WSW 17:27:14 52° WNW 17:32:24 10° N
USA 215 4.4 17:23:50 20° E 17:27:38 36° NNE 17:33:30 10° NNW
STARLINK-1107 4.5 17:24:46 10° NW 17:27:59 49° NNW 17:27:59 49° NNW
Meteor 1-23 Rocket 4.3 17:36:33 63° SW 17:37:18 72° W 17:43:00 10° N
COSMOS 2406 4.3 17:36:04 10° NW 17:41:08 33° WSW 17:41:51 32° WSW
Nadezhda 4 Rocket 4.1 17:44:32 56° SW 17:45:39 67° W 17:51:46 10° N
Cosmos 972 Rocket 4.5 17:49:41 62° WSW 17:50:33 71° WNW 17:57:02 10° NNE
Cosmos 1461 4.5 17:54:07 32° NNE 17:54:07 32° NNE 17:56:31 10° NNE
SPOT 5 4.3 17:54:01 29° W 17:54:16 29° W 17:58:46 10° NW
Meteor 1-22 Rocket 4.5 17:51:13 10° N 17:56:54 61° ENE 17:56:54 61° ENE
Cosmos 2297 4.0 18:01:42 59° W 18:02:10 62° WNW 18:07:49 10° NNE
Cosmos 1741 Rocket 4.4 17:59:24 10° NNW 18:03:50 55° WNW 18:03:50 55° WNW
Cosmos 1975 Rocket 4.3 18:09:31 40° N 18:09:31 40° N 18:12:25 10° N
ATLAS 2AS CENTAUR R/B 4.0 18:13:43 32° E 18:13:43 32° E 18:19:27 10° NE
Cosmos 2082 Rocket 3.1 18:15:57 10° NW 18:20:37 39° W 18:20:37 39° W
Cosmos 1092 Rocket 4.3 18:23:04 52° W 18:23:30 53° W 18:29:30 10° N
SeaSat 1 4.1 18:23:19 10° N 18:27:26 27° NW 18:28:47 24° W
Cosmos 2369 Rocket 2.7 18:33:43 53° NE 18:33:43 53° NE 18:38:06 10° NNE
Meteor 1-21 4.4 18:36:35 67° N 18:36:35 67° N 18:41:28 10° N
Nimbus 7 Rocket 4.4 18:30:25 10° NNE 18:36:12 80° NNW 18:36:12 80° NNW
Cosmos 1943 Rocket 2.6 18:44:38 58° NNW 18:44:38 58° NNW 18:49:32 10° NNE
Cosmos 1655 Rocket 4.0 18:52:44 73° NE 18:52:44 73° NE 18:58:25 10° N
S3M 4.0 18:52:52 10° N 18:58:32 71° NE 18:58:32 71° NE
COSMOS 2455 4.1 19:02:18 30° ENE 19:02:18 30° ENE 19:06:03 10° NE
ALOS 2 4.3 19:04:36 30° NNW 19:04:36 30° NNW 19:06:56 10° NNW
Lacrosse 5 3.9 19:04:01 10° WNW 19:05:39 19° WNW 19:05:39 19° WNW
USA 215 3.3 19:11:09 63° W 19:11:09 63° W 19:16:52 10° NW
Cosmos 1553 Rocket 4.4 19:10:38 10° NNW 19:16:14 54° WNW 19:16:14 54° WNW
Cosmos 1656 Rocket 4.0 19:29:48 62° N 19:29:48 62° N 19:34:30 10° NNE
NOSS 3-2 (C) 4.3 19:22:08 10° NNW 19:29:51 68° NE 19:32:22 48° ESE
NOSS 3-4 (A) 3.5 19:35:18 72° N 19:35:18 72° N 19:40:56 10° NNE
NOSS 3-4 (C) 3.5 19:35:25 72° N 19:35:25 72° N 19:41:03 10° NNE
SL-16 R/B 4.5 19:40:46 14° E 19:44:04 21° ENE 19:48:31 10° NNE
ATLAS 3B R/B 4.0 19:39:47 10° NNW 19:46:00 36° NE 19:51:19 14° ESE
Cosmos 2266 Rocket 4.4 19:47:02 50° WNW 19:47:02 50° WNW 19:52:35 10° N
CENTAUR R/B 3.2 19:42:17 10° NNW 19:50:36 78° ENE 19:53:28 48° SE
SL-4 R/B 3.4 20:02:33 44° NNE 20:02:33 44° NNE 20:06:01 10° NE
ATLAS 2AS CENTAUR R/B 3.4 20:01:07 45° W 20:03:14 57° NW 20:11:05 10° NNE
ATLAS CENTAUR R/B 2.9 20:08:28 36° NNE 20:08:28 36° NNE 20:11:04 10° NNE
Meteor 2-14 Rocket 4.3 20:11:50 87° NNE 20:11:50 87° NNE 20:17:52 10° N
Cosmos 1809 Rocket 4.5 20:13:46 70° WNW 20:13:46 70° WNW 20:19:47 10° N
Meteor 1-24 Rocket 3.8 20:15:31 69° NNE 20:15:31 69° NNE 20:20:12 10° N
Cosmos 1867 3.8 20:09:40 10° NNW 20:14:56 66° NE 20:14:56 66° NE
NOSS 3-2 (A) 4.5 20:08:29 10° NW 20:15:31 46° WSW 20:15:31 46° WSW
Cosmos 2369 Rocket 4.3 20:15:28 15° WNW 20:17:02 16° NW 20:20:29 10° NNW
Cosmos 2315 Rocket 4.5 20:17:08 10° NNW 20:22:31 45° WNW 20:22:31 45° WNW
BREEZE-M R/B 4.0 20:27:17 45° NE 20:27:17 45° NE 20:29:36 10° NE
CZ-2D R/B 2.8 20:21:23 10° NNE 20:26:16 43° E 20:26:16 43° E
Meteor 2-5 Rocket 4.1 20:27:53 51° WNW 20:27:53 51° WNW 20:32:49 10° N
ADEOS II 4.1 20:26:35 10° NE 20:29:59 17° E 20:31:18 16° ESE
RESURS DK-1 3.7 20:31:38 39° NNE 20:31:38 39° NNE 20:34:20 10° NNE
SL-08 R/B 4.3 20:32:41 78° SW 20:33:04 82° W 20:39:26 10° N
CZ-4C R/B 3.9 20:35:12 17° ESE 20:35:12 17° ESE 20:38:26 10° ENE
Resurs 1-4 Rocket 2.4 20:31:41 10° NNE 20:36:54 57° E 20:36:56 57° ESE
SL-08 ROCKET BODY 4.2 20:40:58 75° SE 20:41:25 80° E 20:47:18 10° N
CZ-4C R/B 4.2 20:43:39 51° NNE 20:43:39 51° NNE 20:47:07 10° N
NPP 3.9 20:37:48 10° NNE 20:43:06 55° E 20:43:27 54° ESE
GEOS 3 Rocket 3.9 20:45:31 54° WNW 20:45:31 54° WNW 20:49:42 10° NW
Cosmos 1656 4.4 20:44:02 40° ESE 20:44:34 41° ESE 20:49:51 10° NE
COSMOS 2455 3.8 20:45:25 32° WNW 20:46:30 34° NW 20:51:58 10° N
Cosmos 1709 Rocket 4.5 20:47:49 41° SE 20:49:22 51° E 20:55:15 10° NNE
Cosmos 1386 Rocket 4.2 20:49:10 73° S 20:49:51 90° NE 20:55:59 10° N
Cosmos 2084 3.9 21:02:43 57° NNW 21:02:43 57° NNW 21:06:43 10° NNE
SJ 16-02 3.2 21:01:52 10° N 21:05:44 29° ENE 21:08:33 15° ESE
Cosmos 921 Rocket 4.2 21:10:00 31° NW 21:10:00 31° NW 21:13:10 10° N
Cosmos 1980 Rocket 4.2 21:08:20 13° SE 21:11:03 18° E 21:14:46 10° ENE
Cosmos 2219 3.7 21:07:08 10° NNW 21:12:42 56° ENE 21:16:49 18° SE
Cosmos 1626 Rocket 4.4 21:15:22 39° NW 21:15:22 39° NW 21:18:47 10° N
Nadezhda 1 Rocket 4.0 21:09:28 10° NNW 21:15:34 63° W 21:16:41 54° SW
FALCON 9 R/B 3.8 21:11:19 30° W 21:15:40 77° S 21:42:48 10° E
Cosmos 192 4.3 21:23:37 62° W 21:24:03 65° WNW 21:29:00 10° NNE
USA 234 4.4 21:20:53 10° ENE 21:26:29 30° SE 21:29:03 23° SSE
UNK 4.0 21:27:19 50° W 21:27:19 50° W 21:31:27 10° NNW
SL-16 R/B 2.5 21:25:51 49° SSW 21:27:10 59° WSW 21:33:14 10° NNW
Cosmos 2297 Rocket 2.6 21:22:59 10° NNW 21:28:36 61° ENE 21:34:10 10° SE
ATLAS CENTAUR R/B 3.5 21:29:22 10° NNW 21:32:42 45° NE 21:40:23 10° ESE
Cosmos 1328 3.9 21:32:37 63° SE 21:32:57 67° E 21:36:56 10° NNE
Timation 2 Rocket 4.1 21:27:59 10° NW 21:33:56 47° WSW 21:34:42 44° SW
CZ-4B R/B 3.8 21:29:21 10° N 21:34:24 55° WNW 21:35:23 47° WSW
AQUA 4.0 21:30:18 10° N 21:34:57 55° WNW 21:35:32 51° WSW
ATLAS 3B R/B 3.0 21:30:17 10° NW 21:36:47 46° WSW 21:38:27 39° SSW
STARLINK-1338 3.9 21:37:31 45° NNW 21:37:31 45° NNW 21:40:41 10° NE
STARLINK-1320 4.3 21:38:28 33° NNW 21:38:28 33° NNW 21:40:56 10° NNE
STARLINK-1322 4.3 21:38:48 33° NNW 21:38:48 33° NNW 21:41:16 10° NNE
STARLINK-1324 4.3 21:39:08 33° NNW 21:39:08 33° NNW 21:41:36 10° NNE
ERS-2 4.4 21:35:47 10° SE 21:38:45 24° ENE 21:41:44 10° NNE
STARLINK-1294 4.3 21:39:24 33° NNW 21:39:24 33° NNW 21:41:55 10° NNE
STARLINK-1261 4.3 21:39:46 33° NNW 21:39:46 33° NNW 21:42:16 10° NNE
STARLINK-1325 4.3 21:40:06 33° NNW 21:40:06 33° NNW 21:42:37 10° NNE
Cosmos 990 Rocket 4.4 21:34:43 10° N 21:39:56 62° ENE 21:44:52 11° SSE
CBERS-1 3.9 21:34:53 10° N 21:40:00 75° WNW 21:41:21 49° SW
STARLINK-1333 4.3 21:40:24 33° NNW 21:40:24 33° NNW 21:42:56 10° NNE
Cosmos 1812 Rocket 3.9 21:36:00 10° NNW 21:40:14 49° W 21:40:14 49° W
STARLINK-1334 4.3 21:40:43 33° NNW 21:40:43 33° NNW 21:43:15 10° NNE
STARLINK-1326 4.3 21:41:04 32° NNW 21:41:04 32° NNW 21:43:36 10° NNE
CENTAUR R/B 4.2 21:34:20 10° WNW 21:40:34 25° WSW 21:40:34 25° WSW
STARLINK-1323 4.3 21:41:24 32° NNW 21:41:24 32° NNW 21:43:56 10° NNE
STARLINK-1371 4.0 21:41:19 42° NW 21:41:19 42° NW 21:44:38 10° NE
STARLINK-1349 4.3 21:41:43 32° NNW 21:41:43 32° NNW 21:44:16 10° NNE
STARLINK-1336 4.3 21:42:03 32° NNW 21:42:03 32° NNW 21:44:37 10° NNE
STARLINK-1331 4.3 21:42:21 32° NNW 21:42:21 32° NNW 21:44:56 10° NNE
STARLINK-1344 4.3 21:42:41 32° NNW 21:42:41 32° NNW 21:45:16 10° NNE
STARLINK-1343 4.3 21:43:01 31° NNW 21:43:01 31° NNW 21:45:37 10° NNE
STARLINK-1346 4.3 21:43:20 32° NNW 21:43:20 32° NNW 21:46:00 10° NNE
STARLINK-1341 4.0 21:43:13 40° NW 21:43:17 40° NW 21:46:39 10° NE
STARLINK-1328 4.3 21:43:40 31° NNW 21:43:40 31° NNW 21:46:18 10° NNE
STARLINK-1354 4.3 21:43:59 31° NNW 21:43:59 31° NNW 21:46:36 10° NNE
STARLINK-1347 4.3 21:44:20 31° NNW 21:44:20 31° NNW 21:46:58 10° NNE
STARLINK-1357 4.3 21:44:38 31° NNW 21:44:38 31° NNW 21:47:16 10° NNE
STARLINK-1335 4.3 21:44:58 30° NNW 21:44:58 30° NNW 21:47:37 10° NNE
STARLINK-1327 4.3 21:45:17 30° NNW 21:45:17 30° NNW 21:47:57 10° NNE
STARLINK-1374 4.1 21:45:11 38° NW 21:45:20 39° NW 21:48:39 10° NE
STARLINK-1340 4.3 21:45:37 30° NNW 21:45:37 30° NNW 21:48:18 10° NNE
STARLINK-1356 4.3 21:45:57 30° NNW 21:45:57 30° NNW 21:48:38 10° NNE
STARLINK-1345 4.3 21:46:17 30° NNW 21:46:17 30° NNW 21:48:58 10° NNE
Cosmos 841 Rocket 4.0 21:44:10 31° SSE 21:46:29 56° ESE 21:51:35 10° NNE
STARLINK-1355 4.3 21:46:36 30° NNW 21:46:36 30° NNW 21:49:18 10° NNE
STARLINK-1321 4.4 21:46:55 29° NNW 21:46:55 29° NNW 21:49:37 10° NNE
STARLINK-1358 4.4 21:47:15 29° NNW 21:47:15 29° NNW 21:49:58 10° NNE
STARLINK-1339 4.1 21:47:09 37° NW 21:47:23 37° NW 21:50:40 10° NNE
STARLINK-1332 4.4 21:47:34 29° NNW 21:47:34 29° NNW 21:50:17 10° NNE
Cosmos 1825 Rocket 3.4 21:46:59 58° SW 21:47:35 68° W 21:51:54 10° N
STARLINK-1348 4.4 21:47:54 29° NNW 21:47:54 29° NNW 21:50:38 10° NNE
STARLINK-1330 4.4 21:48:13 29° NW 21:48:13 29° NW 21:50:58 10° NNE
STARLINK-1363 4.4 21:48:32 29° NW 21:48:32 29° NW 21:51:17 10° NNE
STARLINK-1337 4.4 21:48:51 28° NW 21:48:51 28° NW 21:51:37 10° NNE
STARLINK-1342 4.4 21:49:12 28° NW 21:49:12 28° NW 21:51:58 10° NNE
STARLINK-1377 4.2 21:49:07 35° NW 21:49:27 36° NW 21:52:43 10° NNE
STARLINK-1364 4.4 21:49:31 28° NW 21:49:33 28° NW 21:52:18 10° NNE
STARLINK-1376 4.4 21:49:51 28° NW 21:49:54 28° NW 21:52:39 10° NNE
STARLINK-1360 4.4 21:50:06 28° NW 21:50:09 28° NW 21:52:55 10° NNE
STARLINK-1361 4.4 21:50:32 27° NW 21:50:36 27° NW 21:53:20 10° NNE
STARLINK-1353 4.2 21:50:30 33° NW 21:50:50 34° NW 21:54:01 10° NNE
STARLINK-1367 4.4 21:50:46 28° NW 21:50:53 28° NW 21:53:39 10° NNE
STARLINK-1366 4.4 21:51:09 27° NW 21:51:15 27° NW 21:53:59 10° NNE
IRS-1D 3.8 21:47:21 10° N 21:52:35 58° WNW 21:54:19 39° SW
STARLINK-1375 4.3 21:53:08 31° NW 21:53:38 33° NW 21:56:51 10° NNE
CZ-2D R/B 4.5 21:51:26 10° NNE 21:55:23 41° E 21:57:41 22° SSE
STARLINK-1350 4.4 21:55:09 30° WNW 21:55:45 32° NW 21:58:57 10° NNE
Cosmos 2181 Rocket 4.0 21:49:55 10° N 21:56:21 81° W 22:00:54 21° S
Meteor 1-28 Rocket 4.5 21:54:03 11° SE 21:57:23 40° ENE 22:00:56 10° N
STARLINK-1352 4.5 21:57:11 28° WNW 21:57:53 30° NW 22:01:03 10° NNE
Cosmos 1455 2.5 21:56:09 10° NNW 21:59:37 44° W 21:59:37 44° W
GP-B 3.5 21:56:17 10° NNW 22:00:31 44° W 22:01:18 39° WSW
SL-08 R/B 3.3 21:57:18 17° SSE 22:00:54 78° ENE 22:05:34 10° N
Cosmos 1697 Rocket 2.6 21:59:43 35° SSW 22:02:13 79° WNW 22:07:56 10° NNE
Cosmos 2227 Rocket 2.1 21:58:28 10° NNW 22:04:10 78° WSW 22:09:49 10° SSE
Cosmos 1763 Rocket 3.8 22:03:42 34° WSW 22:05:27 49° WNW 22:10:24 10° N
Cosmos-2242 2.9 22:01:21 10° NNW 22:05:33 62° W 22:06:55 39° SSW
IRS-P3 4.2 22:00:34 10° N 22:05:50 63° WNW 22:08:15 32° SW
CZ-2D R/B 3.6 22:02:12 10° NNW 22:06:05 21° WNW 22:07:36 19° W
ADEOS II 2.4 22:04:51 10° N 22:09:56 52° WNW 22:12:14 30° SW
Cosmos 1400 Rocket 3.5 22:06:21 10° N 22:10:25 56° E 22:14:28 10° SSE
Resurs 1-4 Rocket 3.9 22:12:53 10° NNW 22:16:12 17° WNW 22:18:01 15° W
Cosmos 1703 4.3 22:16:04 28° W 22:16:38 29° WNW 22:20:08 10° NNW
CZ-4C R/B 4.4 22:13:50 10° SE 22:17:11 41° ENE 22:20:36 10° N
USA 129 4.5 22:20:43 10° NE 22:21:13 13° ENE 22:21:13 13° ENE
CZ-4C R/B 2.4 22:20:22 27° WSW 22:22:54 52° NW 22:28:28 10° NNE
ARIANE 5 R/B 2.5 22:18:16 10° N 22:23:17 63° WNW 22:26:14 24° SSW
Meteor 1-27 4.4 22:20:08 10° N 22:25:42 73° E 22:31:15 10° SSE
H-2A R/B 2.2 22:23:07 10° SSE 22:27:21 76° ENE 22:31:44 10° N
Cosmos 2285 Rocket 3.9 22:22:15 10° NNW 22:28:39 79° WSW 22:34:57 10° S
Spot 4 Rocket 4.0 22:23:36 10° N 22:28:45 79° WNW 22:32:34 18° SSW
Meteor 2-17 Rocket 4.5 22:23:22 13° S 22:28:54 87° E 22:35:05 10° N
Cosmos 1898 Rocket 3.9 22:27:12 10° NNW 22:32:14 44° WSW 22:36:47 12° S
CZ-2C R/B 2.8 22:29:20 10° NNE 22:33:02 74° ESE 22:35:54 16° S
STARLINK-1228 3.6 22:30:59 10° WNW 22:34:03 35° SW 22:37:07 10° SSE
Cosmos 2369 4.3 22:32:01 21° WSW 22:35:21 43° WNW 22:40:44 10° N
IDEFIX/ARIANE 42P 2.6 22:30:33 10° NNE 22:35:51 83° ESE 22:40:51 11° SSW
STARLINK-1208 4.3 22:32:40 10° NW 22:36:45 57° NE 22:40:49 10° ESE
STARLINK-1234 3.5 22:33:56 10° WNW 22:36:47 33° SW 22:39:37 10° SSE
Cosmos 2208 Rocket 4.4 22:34:40 22° SW 22:37:51 50° WNW 22:42:59 10° N
Cosmos 2360 4.5 22:34:21 21° SW 22:38:05 56° WNW 22:43:41 10° NNE
STARLINK-1212 3.0 22:35:10 10° WNW 22:38:11 48° SW 22:41:11 10° SSE
STARLINK-1105 3.0 22:35:39 10° WNW 22:38:39 47° SW 22:41:37 10° SSE
STARLINK-1209 3.7 22:37:50 25° W 22:38:43 29° SW 22:41:30 10° SSE
STARLINK-1247 3.0 22:36:34 10° WNW 22:39:34 46° SW 22:42:34 10° SSE
STARLINK-1227 3.0 22:37:02 10° WNW 22:40:00 45° SW 22:42:59 10° SSE
STARLINK-1226 3.1 22:37:54 10° WNW 22:40:52 45° SW 22:43:51 10° SSE
Cosmos 2058 3.8 22:37:07 10° SSE 22:41:08 50° E 22:45:11 10° NNE
STARLINK-1271 4.1 22:37:38 10° NW 22:41:46 63° NE 22:45:51 10° ESE
STARLINK-1215 3.1 22:38:50 10° WNW 22:41:50 43° SW 22:44:48 10° SSE
BREEZE-M DEB (TANK) 2.7 22:39:51 10° NW 22:41:51 39° NE 22:44:29 10° ESE
Lacrosse 4 Rocket 2.0 22:38:06 10° NNW 22:42:23 62° ENE 22:46:31 10° SE
Cosmos 1937 Rocket 3.7 22:37:41 10° NNW 22:42:44 49° WSW 22:47:48 10° S
STARLINK-1217 3.2 22:40:37 10° WNW 22:43:35 41° SW 22:46:32 10° SSE
SJ 16-02 2.6 22:40:43 10° NW 22:44:06 22° W 22:45:27 19° WSW
STARLINK-1229 3.2 22:41:33 10° WNW 22:44:30 40° SW 22:47:27 10° SSE
STARLINK-1270 3.2 22:42:25 10° WNW 22:45:22 39° SW 22:48:18 10° SSE
STARLINK-1154 3.9 22:42:36 10° NW 22:46:45 69° NE 22:50:52 10° SE
STARLINK-1189 3.3 22:44:17 10° WNW 22:47:12 37° SW 22:50:06 10° SSE
STARLINK-1188 3.3 22:45:10 10° WNW 22:48:04 36° SW 22:50:58 10° SSE
IRIDIUM 104 4.3 22:43:03 10° S 22:48:15 79° W 22:53:29 10° N
STARLINK-1235 3.8 22:46:01 10° WNW 22:48:41 26° SW 22:51:20 10° S
STARLINK-1187 3.6 22:46:21 10° WNW 22:49:08 30° SW 22:51:53 10° SSE
STARLINK-1191 3.4 22:47:40 10° WNW 22:50:31 34° SW 22:53:21 10° SSE
STARLINK-1221 3.5 22:48:33 10° WNW 22:51:23 33° SW 22:54:13 10° SSE
STARLINK-1197 3.8 22:47:34 10° NW 22:51:44 77° NE 22:55:51 10° SE
STARLINK-1222 3.5 22:49:27 10° WNW 22:52:16 32° SW 22:55:05 10° SSE
STARLINK-1214 3.5 22:50:23 10° WNW 22:53:11 31° SW 22:55:58 10° SSE
Nadezhda 3 Rocket 4.0 22:47:43 10° N 22:54:01 86° W 23:00:21 10° S
Cosmos 1980 Rocket 2.5 22:50:07 16° SW 22:54:31 54° WNW 23:00:02 10° NNE
Cosmos 1842 Rocket 3.5 22:50:05 10° NNW 22:54:33 73° W 22:59:00 10° S
STARLINK-1198 3.7 22:52:31 10° NW 22:56:40 85° NE 23:00:48 10° SE
IRIDIUM 114 4.4 22:52:15 10° SSW 22:57:25 64° W 23:02:37 10° N
Cosmos 2341 Rocket 4.3 22:53:10 10° S 22:59:31 74° E 23:05:53 10° N
STARLINK-26 3.9 22:58:08 13° SSW 23:00:55 45° SE 23:04:14 10° ENE
STARLINK-1199 3.6 22:57:31 10° NW 23:01:41 87° SW 23:05:49 10° SE
Cosmos 1408 3.8 22:58:23 10° SSE 23:01:54 43° E 23:05:26 10° NNE
Iridium 2 4.4 23:00:36 10° NNW 23:04:00 33° W 23:07:24 10° SSW
CZ-2C R/B 3.3 22:59:15 10° NNE 23:04:16 52° E 23:09:19 10° S
STARLINK 1040 2.7 23:04:30 16° WSW 23:06:22 56° NW 23:08:55 10° NE
STARLINK-1210 3.5 23:02:29 10° NW 23:06:38 79° SW 23:10:46 10° SE
STARLINK-1283 4.4 23:05:19 10° SSW 23:08:44 37° SE 23:12:11 10° ENE
USA 234 3.4 23:03:14 10° NE 23:09:44 69° NW 23:16:12 10° WSW
STARLINK-1219 3.5 23:07:28 10° NW 23:11:37 71° SW 23:15:43 10° SE
Cosmos 2297 Rocket 3.7 23:08:42 10° WNW 23:12:02 16° W 23:15:21 10° SW
ERS-2 3.7 23:09:57 11° SW 23:12:15 18° W 23:14:51 10° NW
CZ-4B R/B 1.9 23:09:35 10° SSE 23:12:34 55° ENE 23:15:34 10° N
Cosmos 1825 3.5 23:10:52 10° SSE 23:14:23 40° E 23:17:56 10° NNE
STARLINK-43 3.8 23:11:26 11° WSW 23:14:48 50° NW 23:18:24 10° NE
Cosmos 2082 4.4 23:11:00 10° NW 23:15:57 32° WSW 23:20:51 10° SSW
STARLINK-1211 3.6 23:12:27 10° NW 23:16:33 64° SW 23:20:38 10° SE
STARLINK-42 3.4 23:14:18 10° SSW 23:17:25 53° SE 23:20:34 10° ENE
ASTRO F (AKARI) 4.5 23:17:54 10° N 23:21:21 79° WNW 23:24:56 10° SSW
STARLINK-1245 3.7 23:17:28 10° NW 23:21:32 57° SW 23:25:35 10° SSE
Cosmos 1076 Rocket 3.7 23:17:35 10° SSW 23:21:50 54° W 23:26:07 10° N
Cosmos 2322 Rocket 2.7 23:19:23 10° S 23:24:56 63° ESE 23:30:30 10° NNE
Landsat 5 4.4 23:21:06 10° SSW 23:25:04 32° W 23:29:08 10° NNW
STARLINK-1233 3.8 23:22:28 10° WNW 23:26:29 51° SW 23:30:30 10° SSE
NOSS 2-1 (C) 3.1 23:24:54 10° SSW 23:28:23 71° ESE 23:31:48 10° NE
Cosmos 2263 Rocket 2.7 23:23:01 10° NNW 23:28:37 68° ENE 23:34:09 10° SSE
Cosmos 2227 4.4 23:27:03 10° NNW 23:32:49 87° ENE 23:38:34 10° SSE
CZ-3 R/B 4.0 23:14:22 10° SW 23:36:59 35° S 23:44:18 10° ESE
